Location: *
(17.3280°S, 114.7300°W)
Time: 09:37:25
(UTC+00:00)

Envisat - Pass Details

Date: 28 October 2020
Orbit: 764 x 766 km, 98.1° (Epoch: 28 November)

Event Time Altitude Azimuth Distance (km) Brightness Sun altitude
Rises 02:18:45 0° 191° (S) 3,248 6.7 -9.0°
Reaches altitude 10° 02:21:36 10° 207° (SSW) 2,316 6.2 -9.7°
Maximum altitude 02:25:17 20° 253° (WSW) 1,707 6.0 -10.5°
Drops below altitude 10° 02:28:56 10° 300° (WNW) 2,300 6.1 -11.3°
Sets 02:31:47 0° 316° (NW) 3,219 6.6 -12.0°
